Location: Newark
(55.2875°N, 3.1864°W)
Time: 02:04:12
(UTC+00:00)

ISS - Pass Details

Date: 01 February 2020
Orbit: 415 x 422 km, 51.6° (Epoch: 26 February)

Event Time Altitude Azimuth Distance (km) Brightness Sun altitude
Rises 19:02:27 0° 272° (W) 2,382 1.7 -19.1°
Reaches altitude 10° 19:04:40 10° 262° (W) 1,514 0.3 -19.4°
Maximum altitude 19:07:45 32° 198° (SSW) 748 -2.4 -19.8°
Enters shadow 19:08:21 30° 175° (S) 790 -2.5 -19.9°
